This is the latest recevied weather packets stored in our database for station/object AA0PB. If no packets are shown the sender has not sent any weather packets the latest 10 day(s).
| Time | Temp. | Humidity | Pressure | Rain* | Wind** | Luminosity | Snow |
|---|---|---|---|---|---|---|---|
| 1777851753 | 33.89° C | 23% | 1008.4 hPa | 0 mm | - | 420 W/m² | - |
| 1777851450 | 33.89° C | 23% | 1008.4 hPa | 0 mm | - | 367 W/m² | - |
| 1777851146 | 32.78° C | 24% | 1008.4 hPa | 0 mm | - | 442 W/m² | - |
| 1777850843 | 32.22° C | 26% | 1008.7 hPa | 0 mm | - | 455 W/m² | - |
| 1777850540 | 32.22° C | 25% | 1008.5 hPa | 0 mm | - | 466 W/m² | - |
| 1777850239 | 33.33° C | 23% | 1008.5 hPa | 0 mm | - | 476 W/m² | - |
| 1777849935 | 34.44° C | 22% | 1008.7 hPa | 0 mm | - | 488 W/m² | - |
| 1777849631 | 33.89° C | 21% | 1008.6 hPa | 0 mm | - | 499 W/m² | - |
| 1777849329 | 32.78° C | 22% | 1008.8 hPa | 0 mm | - | 510 W/m² | - |
| 1777849026 | 32.78° C | 21% | 1008.6 hPa | 0 mm | - | 526 W/m² | - |
| 1777848726 | 33.33° C | 20% | 1008.7 hPa | 0 mm | - | 531 W/m² | - |
| 1777848423 | 33.33° C | 24% | 1009.1 hPa | 0 mm | - | 541 W/m² | - |
| 1777848121 | 33.33° C | 23% | 1009.2 hPa | 0 mm | - | 551 W/m² | - |
| 1777847819 | 33.33° C | 24% | 1009 hPa | 0 mm | - | 560 W/m² | - |
| 1777847515 | 32.22° C | 25% | 1009.2 hPa | 0 mm | - | 569 W/m² | - |
| 1777847212 | 32.22° C | 24% | 1009.4 hPa | 0 mm | - | 578 W/m² | - |
| 1777846910 | 33.33° C | 22% | 1009.4 hPa | 0 mm | - | 586 W/m² | - |
| 1777846608 | 32.78° C | 24% | 1009.6 hPa | 0 mm | - | 594 W/m² | - |
| 1777846305 | 33.33° C | 23% | 1009.5 hPa | 0 mm | - | 602 W/m² | - |
| 1777846002 | 33.89° C | 23% | 1009.6 hPa | 0 mm | - | 609 W/m² | - |
| 1777845698 | 33.33° C | 24% | 1009.7 hPa | 0 mm | - | 616 W/m² | - |
| 1777845396 | 32.78° C | 25% | 1009.7 hPa | 0 mm | - | 623 W/m² | - |
| 1777845092 | 32.78° C | 25% | 1009.7 hPa | 0 mm | - | 630 W/m² | - |
| 1777844791 | 33.89° C | 28% | 1009.6 hPa | 0 mm | - | 635 W/m² | - |
| 1777844486 | 33.33° C | 26% | 1009.8 hPa | 0 mm | - | 642 W/m² | - |
* Rain latest hour (hover to see other rain measurements)
** Current wind speed in m/s (hover to see current wind gust speed)